www.pogodaiklimat.ru

Погода и климат >> Архив погоды >> Украина >> Застава


ПОГОДА в Заставе

  • Прогноз погоды в Заставе
  • Монитор погоды в Заставе

АРХИВ ПОГОДЫ в Заставе

Время (UTC), дата Ветер
(напр.,м/с)
 
Видим.   Явления Облачность Т
(С)
Тd
(С)
f
(%)
Тe
(С)
Тes
(С)
Комфортность P
(гПа)
Po
(гПа)
Тmin
(С)
Tmax
(С)
R
(мм)
R24
(мм)
S
(см)
00 14.06 СЗ 4 10 км 8/0
[Ac trans]
+23.6 +18.3 72 +28 +28 душно 1014.7 997.3
03 14.06 С 4 10 км 3/0
[Ci fib]
+22.3 +18.4 79 +28 +28 душно 1015.4 997.9
06 14.06 СВ 2 10 км 10/0
[Ci fib]
+24.8 +19.5 72 +30 +37 душно 1016.0 998.7 +22.3
09 14.06 ЮВ 2 10 км 10/0
[Ac cast Ci sp]
+27.9 +20.3 63 +34 +46 очень
душно
1016.5 999.3
12 14.06 Ю 3 10 км 10/6 600 м
[Cu med, cong Ci sp]
+29.7 +20.5 58 +37 +41 очень
душно
1016.4 999.3
15 14.06 Ю 2 10 км 10/3 600 м
[Cu med, cong Ac trans Ci fib]
+28.9 +21.8 66 +37 +39 очень
душно
1015.1 998.0
18 14.06 Ю 1 10 км 9/0
[Ac trans Ci fib]
+27.5 +21.5 70 +35 +35 очень
душно
1015.2 998.0 +30.2
21 14.06 СЗ 1 10 км 10/0
[Ac trans Ci fib]
+26.1 +22.9 83 +35 +35 очень
душно
1016.4 999.1
00 15.06 В 1 10 км 10/0
[Ac und]
+25.1 +20.8 77 +31 +31 очень
душно
1014.5 997.2
03 15.06 СЗ 2 10 км 9/0
[Ci fib]
+24.5 +21.7 84 +31 +32 очень
душно
1015.2 997.9
06 15.06 С 2 10 км 3/0
[Ci fib]
+26.1 +21.6 76 +33 +41 очень
душно
1015.8 998.5 +24.5
09 15.06 Ю 3 10 км 5/4 600 м
[Cu hum Ci fib]
+29.1 +22.0 66 +38 +46 очень
душно
1015.3 998.2
12 15.06 Ю 4 10 км 5/5 600 м
[Cu med, cong]
+29.9 +18.8 51 +35 +40 очень
душно
1013.8 996.8
18 15.06 С 3 10 км 6/0
[Ci fib]
+28.7 +21.5 65 +37 +37 очень
душно
1012.1 995.1 +30.6
21 15.06 С 1 10 км ясно +25.7 +21.0 75 +32 +32 очень
душно
1012.9 995.7
00 16.06 СЗ 3 10 км ясно +25.1 +20.4 75 +31 +31 очень
душно
1012.3 995.0
03 16.06 СЗ 3 10 км 1/0
[Ci fib]
+23.1 +20.5 85 +30 +31 очень
душно
1012.1 994.7
06 16.06 С 1 10 км 1/0
[Ci fib]
+26.5 +21.7 75 +34 +43 очень
душно
1012.7 995.5 +23.1
09 16.06 Ю 4 10 км 4/4 600 м
[Cu med, cong]
+30.3 +21.7 60 +39 +46 очень
душно
1012.9 995.9
12 16.06 Ю 4 10 км 6/6 600 м
[Cu med, cong]
+32.0 +19.0 46 +37 +41 очень
душно
1012.1 995.2
15 16.06 Ю 4 10 км 4/4 600 м
[Cu med, cong]
+32.4 +18.6 44 +37 +39 очень
душно
1010.8 994.0
18 16.06 В 3 10 км 6/3 600 м
[Cu hum Ac trans Ci fib]
+30.1 +20.8 58 +37 +37 очень
душно
1011.4 994.4 +32.9
21 16.06 СВ 3 10 км 6/0
[Ac trans Ci fib]
+27.3 +21.3 70 +35 +35 очень
душно
1012.2 995.1
00 17.06 В 4 10 км ясно +25.6 +20.1 72 +32 +32 очень
душно
1012.8 995.6
03 17.06 С 3 10 км ясно +23.9 +18.7 73 +29 +29 душно 1013.8 996.5
06 17.06 С 3 10 км 1/0
[Ci fib]
+26.1 +20.8 73 +33 +39 очень
душно
1013.9 996.7 +23.2
09 17.06 ЮВ 4 10 км 8/1 600 м
[Cu hum Ci fib]
+28.7 +21.2 64 +36 +45 очень
душно
1014.1 997.0
12 17.06 Ю 4 10 км 9/0
[Ci fib]
+29.3 +19.0 54 +35 +43 очень
душно
1013.6 996.6
15 17.06 Ю 3 10 км 3/0
[Ci fib]
+28.5 +20.7 63 +36 +39 очень
душно
1012.7 995.6
18 17.06 СВ 3 10 км 3/0
[Ac trans Ci fib]
+27.8 +20.4 64 +34 +34 очень
душно
1013.3 996.2 +29.3
21 17.06 В 3 10 км 4/0
[Ac trans Cc]
+26.3 +20.0 68 +32 +32 очень
душно
1014.6 997.4
00 18.06 С 4 10 км ясно +24.5 +19.4 73 +30 +30 очень
душно
1014.6 997.3
03 18.06 С 5 10 км ясно +22.7 +19.6 83 +29 +29 очень
душно
1014.6 997.2
06 18.06 С 1 10 км ясно +24.8 +19.2 71 +30 +39 душно 1015.5 998.2 +24.5
12 18.06 Ю 5 10 км 3/3 600 м
[Cu med, cong]
+28.7 +20.0 59 +35 +41 очень
душно
1014.8 997.7
18 18.06 ЮЗ 1 10 км 3/3 600 м
[Cb calv Ci fib]
+28.9 +19.7 58 +35 +35 очень
душно
1013.1 996.1 +30.1
00 19.06 С 3 10 км ясно +24.3 +19.0 72 +29 +29 душно 1013.5 996.2
06 19.06 В 1 10 км 1/0
[Ci fib]
+26.5 +21.2 73 +34 +43 очень
душно
1014.2 997.0 +24.1
12 19.06 Ю 3 10 км {гроза} 6/4 600 м
[Cu med, cong Ac trans Ci fib]
+29.6 +21.6 62 +38 +44 очень
душно
1012.9 995.9
18 19.06 З 1 10 км 6/3 600 м
[Sc Ac trans Ci fib]
+28.2 +20.2 62 +35 +35 очень
душно
1011.6 994.5 +31.7

 

Местоположение метеостанции Застава (Одесская область, Украина): широта 46.80 долгота 30.00 высота над уровнем моря 150 м.

В архиве по умолчанию представлена погода в Заставе за последнюю неделю. Архивные данные за месяц целиком и за предыдущие месяцы, начиная с января 2011 года, Вы можете получить, выбрав интересующий диапазон дат из раскрывающегося списка и нажав кнопку "Ввод!".


*Определитесь, кто Вы:
робот инопланетянин человек

Внимание! Время в таблицах - всемирное. Для получения местного времени необходимо прибавить поправку, которая равна 2 ч.

Смотрите также архив погоды в соседних городах и на ближайших метеорологических станциях:

Погода в Раздельной (Одесская область, Украина) (8 км)
Погода в Тирасполе (Молдова) (32 км)
Погода в Штефан Водэ (Молдова) (50 км)
Погода в Затишье (Одесская область, Украина) (60 км)
Погода в Сербке (Одесская область, Украина) (62 км)
Погода в Ильичевске (Одесская область, Украина) (70 км)
Погода в Одессе (Одесская область, Украина) (72 км)
Погода в Белгород-Днестровском (Одесская область, Украина) (75 км)
Погода в Балцате (Молдова) (79 км)
Погода в Кишиневе (Молдова) (81 км)

Пояснения к столбцам:

Ветер - указаны скорость ветра в м/с - средняя за 10 мин, порывы в срок и между сроками (в фигурных скобках) и направление, откуда дует ветер: С - северный, СВ - северо-восточный, В - восточный, ЮВ - юго-восточный, Ю - южный, ЮЗ - юго-западный, З - западный, СЗ - северо-западный.
Видимость - горизонтальная дальность видимости в метрах или километрах. При видимости от 1 до 10 км при отсутствии осадков обычно наблюдается дымка, при ухудшении видимости до 1 км и менее - туман. В сухую погоду видимость может ухудшаться дымом, пылью или мглою.
Явления - указаны атмосферные явления, наблюдавшиеся в срок или в последний час перед сроком; фигурными скобками обозначены явления, наблюдавшиеся между сроками (за 1-3 часа до срока); квадратными скобками обозначены град или гололедные отложения с указанием их диаметра в мм.
Облачность - указаны через наклонную черту общая и нижняя облачность в баллах и высота нижней границы облаков в метрах; квадратными скобками обозначены формы облаков: Ci - перистые, Cs - перисто-слоистые, Cc - перисто-кучевые, Ac - высококучевые, As - высокослоистые, Sc - слоисто-кучевые, Ns - слоисто-дождевые, Cu - кучевые, Cb - кучево-дождевые. Подробнее классификацию облаков см. в Атласе облаков (PDF).
T - Температура воздуха - температура, измеренная на высоте 2 м над землей.
Td - Температура точки росы - температура, при понижении до которой содержащийся в воздухе водяной пар достигнет насыщения.
f - Относительная влажность воздуха - влажноcть воздуха, измеренная на высоте 2 м над землей.
Te - Эффективная температура - температура, которую ощущает одетый по сезону человек в тени. Характеристика душности погоды. При расчете учитывается влияние влажности воздуха и скорости ветра на теплоощущения человека.
Tes - Эффективная температура на солнце - температура, которую ощущает человек, с поправкой на солнечный нагрев. Характеристика знойности погоды. Зависит от высоты солнца над горизонтом, облачности и скорости ветра. Ночью, в пасмурную погоду, а также при ветре 12 м/с и более поправка равна нулю.
P - Атмосферное давление - приведенное к уровню моря атмосферное давление.
Po - Атмосферное давление - измеренное на уровне метеостанции атмосферное давление.
Tmin - Минимальная температура - минимум температуры воздуха на высоте 2 м над землей.
Tmax - Максимальная температура - максимум температуры воздуха на высоте 2 м над землей.
R - Количество осадков - Количество выпавших осадков за период времени, мм. При наведении курсора мыши на число - период времени, за который выпало указанное количество осадков.
R24 - Количество осадков - Количество выпавших осадков за 24 часа, мм.
S - Снежный покров - Высота снежного покрова, см. При наведении курсора мыши на число - состояние снежного покрова и степень покрытия местности в баллах.